CZ-7A R/B (53814 NORAD) Tracking and Keplerian Element Data

This shows tracking and keplerian element data for the satellite.

Feedback or suggestion? Click here.




ElementValue
Catalog53814
NameCZ-7A R/B
Epoch Orbit95
Epoch Day285.26316757
Epoch Year2022
RAAN185.6764
Inclination13.8672
Eccentricity0.2540899
Argument of Perigee225.6084
Mean Anonmoly280.2274
Mean Motion10.74533745
Decay Rate0.74565975
L11 53814U 22112B 22285.26316757 .74565975 -42491-4 22761-2 0 9998
L22 53814 13.8672 185.6764 2540899 225.6084 280.2274 10.74533745 959



Live tracking and technical data element details for CZ-7A R/B (NORAD 53814). CZ-7A R/B can be tracked NOW for your location showing map with azimuth and elevation plus other details from your city location.







IsCatalogInMostPopularTable: catalog: 53814, numindb: -1

Insert: records affected: 1


GetName: 53814 CZ-7A R/B

Hit Count: inserted at: Thu, 08 Dec 2022 09:25:39 GMT